Date String (YYYY-MM-DD hh:mm:ss) UTC,Instrument flags,Ambient pressure (hPa),Sample flow (lpm),Bypass flow (lpm),Sample temperature (°C),Ambient temperature (°C),ASC tube jacket temperature (°C),LED temperature (°C),Box temperature (°C),Sample RH (%),Span deviation,Mass concentration (μg/m³),Mass concentration (μg/m³),Mass concentration (μg/m³)
DateTimeUTC,F1_M11,P_M11,Q1_M11,Q2_M11,T1_M11,T2_M11,T3_M11,T4_M11,T5_M11,U1_M11,ZSPAN_M11,X0_M11,X2_M11,X1_M11
2021-08-23 23:00:00,,0824.5,5.00,0.00,28.9,26.8,00.0,37.9,30.6,21.9,0002.4,0008.87,0004.11,0003.87
2021-08-23 23:01:00,,0824.4,5.00,0.00,28.9,27.2,00.0,37.9,30.7,22.0,0002.5,0008.89,0004.13,0003.88
2021-08-23 23:02:00,,0824.4,5.00,0.00,29.0,27.6,00.0,37.9,30.8,22.9,0002.3,0009.02,0004.15,0003.88
2021-08-23 23:03:00,,0824.5,5.01,0.00,29.0,27.9,00.0,38.0,31.0,22.7,0001.9,0009.07,0004.20,0003.93
2021-08-23 23:04:00,,0824.4,5.00,0.00,29.1,27.8,00.0,38.0,30.9,21.6,0001.8,0008.53,0004.27,0003.99
2021-08-23 23:05:00,,0824.4,5.00,0.00,29.0,26.3,00.0,38.0,30.5,22.1,0001.5,0008.59,0004.39,0004.06
2021-08-23 23:06:00,,0824.4,5.01,0.00,28.8,25.6,00.0,38.0,30.2,22.3,0001.3,0008.73,0004.47,0004.12
2021-08-23 23:07:00,,0824.5,4.97,0.00,28.8,26.0,00.0,38.0,30.3,22.8,0001.3,0008.75,0004.50,0004.16
2021-08-23 23:08:00,,0824.4,5.01,0.00,28.8,26.4,00.0,37.9,30.5,22.5,0001.6,0008.06,0004.51,0004.16
2021-08-23 23:09:00,,0824.4,5.01,0.00,28.8,26.9,00.0,37.9,30.6,22.9,0001.3,0007.91,0004.50,0004.16
2021-08-23 23:10:00,,0824.6,4.98,0.00,28.9,27.4,00.0,37.9,30.7,22.5,0000.7,0008.26,0004.49,0004.17
2021-08-23 23:11:00,,0824.5,5.01,0.00,29.0,27.7,00.0,37.9,30.9,22.0,0000.1,0008.21,0004.49,0004.18
2021-08-23 23:12:00,,0824.5,5.01,0.00,29.0,28.0,00.0,37.9,30.9,21.9,0000.6,0008.26,0004.49,0004.17
2021-08-23 23:13:00,,0824.5,5.00,0.00,29.0,27.2,00.0,38.0,30.7,22.5,0000.8,0008.38,0004.49,0004.16
2021-08-23 23:14:00,,0824.4,4.99,0.00,28.9,25.8,00.0,37.9,30.3,22.3,0000.9,0008.50,0004.48,0004.15
2021-08-23 23:15:00,,0824.4,5.00,0.00,28.8,25.8,00.0,37.9,30.3,23.2,0001.1,0008.57,0004.50,0004.14
2021-08-23 23:16:00,,0824.4,5.00,0.00,28.8,26.2,00.0,37.9,30.4,23.6,0001.6,0008.57,0004.49,0004.13
2021-08-23 23:17:00,,0824.4,5.01,0.00,28.8,26.6,00.0,37.9,30.5,22.5,0002.0,0008.84,0004.50,0004.11
2021-08-23 23:18:00,,0824.4,4.99,0.00,28.8,27.1,00.0,37.9,30.6,22.5,0001.8,0008.83,0004.48,0004.10
2021-08-23 23:19:00,,0824.4,4.99,0.00,28.9,27.5,00.0,37.9,30.8,21.5,0001.0,0008.97,0004.49,0004.10
2021-08-23 23:20:00,,0824.4,5.00,0.00,28.9,27.8,00.0,37.9,30.9,21.2,0001.2,0008.75,0004.51,0004.10
2021-08-23 23:21:00,,0824.4,5.01,0.00,29.0,28.1,00.0,37.9,31.0,21.4,0001.7,0008.38,0004.53,0004.09
2021-08-23 23:22:00,,0824.4,5.00,0.00,29.1,28.1,00.0,38.0,31.0,21.8,0002.1,0008.43,0004.52,0004.10
2021-08-23 23:23:00,,0824.4,5.00,0.00,29.0,26.6,00.0,38.0,30.6,21.8,0002.3,0008.93,0004.51,0004.10
2021-08-23 23:24:00,,0824.4,5.00,0.00,28.9,25.7,00.0,37.9,30.3,21.8,0001.7,0008.78,0004.51,0004.10
2021-08-23 23:25:00,,0824.4,5.00,0.00,28.8,26.0,00.0,37.9,30.4,22.2,0001.9,0008.59,0004.51,0004.10
2021-08-23 23:26:00,,0824.3,5.00,0.00,28.8,26.4,00.0,37.9,30.5,22.2,0001.8,0008.52,0004.49,0004.09
2021-08-23 23:27:00,,0824.3,4.99,0.00,28.8,26.9,00.0,37.9,30.6,21.4,0001.6,0008.56,0004.46,0004.07
2021-08-23 23:28:00,,0824.3,5.00,0.00,28.9,27.3,00.0,37.9,30.7,21.7,0001.1,0008.22,0004.39,0004.04
2021-08-23 23:29:00,,0824.3,5.00,0.00,29.0,27.7,00.0,37.9,30.9,22.0,0000.6,0008.43,0004.40,0004.03
2021-08-23 23:30:00,,0824.3,5.00,0.00,29.0,27.8,00.0,38.0,30.9,22.3,0000.0,0008.66,0004.40,0004.01
2021-08-23 23:31:00,,0824.3,5.00,0.00,29.0,26.4,00.0,38.0,30.5,22.2,0000.0,0008.74,0004.38,0003.99
2021-08-23 23:32:00,,0824.3,4.99,0.00,28.8,25.5,00.0,37.9,30.2,23.1,0000.0,0008.71,0004.34,0003.98
2021-08-23 23:33:00,,0824.3,4.99,0.00,28.8,25.8,00.0,37.9,30.3,22.5,0000.0,0008.78,0004.32,0003.95
2021-08-23 23:34:00,,0824.2,5.00,0.00,28.7,26.3,00.0,37.9,30.4,22.5,0000.0,0008.20,0004.27,0003.93
2021-08-23 23:35:00,,0824.2,5.00,0.00,28.8,26.8,00.0,37.9,30.5,23.2,0000.0,0008.10,0004.23,0003.91
2021-08-23 23:36:00,,0824.3,4.99,0.00,28.8,27.2,00.0,37.9,30.7,22.2,0000.0,0008.13,0004.20,0003.87
2021-08-23 23:37:00,,0824.4,5.00,0.00,28.9,27.6,00.0,37.9,30.8,20.6,0000.0,0008.31,0004.16,0003.82
2021-08-23 23:38:00,,0824.5,5.00,0.00,29.0,27.9,00.0,37.9,30.9,21.2,0000.0,0008.66,0004.11,0003.78
2021-08-23 23:39:00,,0824.3,5.00,0.00,29.0,28.2,00.0,37.9,31.0,23.0,0000.0,0008.66,0004.11,0003.76
2021-08-23 23:40:00,,0824.2,5.00,0.00,29.1,28.3,00.0,38.0,31.1,23.8,0000.0,0008.58,0004.09,0003.75
2021-08-23 23:41:00,,0824.1,5.01,0.00,29.1,26.9,00.0,38.0,30.7,24.3,0000.0,0008.21,0004.10,0003.76
2021-08-23 23:42:00,,0824.3,5.01,0.00,28.9,25.7,00.0,38.0,30.3,23.1,0000.0,0008.11,0004.06,0003.76
2021-08-23 23:43:00,,0824.3,5.00,0.00,28.8,25.9,00.0,37.9,30.4,22.3,0000.0,0007.99,0004.05,0003.75
2021-08-23 23:44:00,,0824.5,5.00,0.00,28.8,26.4,00.0,37.9,30.5,21.1,0000.0,0007.97,0004.03,0003.73
2021-08-23 23:45:00,,0824.3,4.99,0.00,28.8,26.8,00.0,37.9,30.6,21.5,0000.0,0007.93,0004.03,0003.71
2021-08-23 23:46:00,,0824.2,5.01,0.00,28.9,27.3,00.0,37.9,30.7,21.2,0000.0,0008.02,0004.04,0003.69
2021-08-23 23:47:00,,0824.3,5.01,0.00,29.0,27.7,00.0,37.9,30.9,21.0,0000.0,0008.04,0004.04,0003.69
2021-08-23 23:48:00,,0824.2,5.00,0.00,29.0,28.0,00.0,38.0,31.0,20.5,0000.0,0007.88,0004.02,0003.68
2021-08-23 23:49:00,,0824.3,5.01,0.00,29.1,27.6,00.0,38.0,30.9,20.7,0000.4,0006.93,0004.01,0003.69
2021-08-23 23:50:00,,0824.2,4.99,0.00,29.0,25.9,00.0,38.0,30.4,21.4,0002.4,0006.89,0004.03,0003.69
2021-08-23 23:51:00,,0824.4,4.99,0.00,28.8,25.6,00.0,37.9,30.3,21.1,0001.7,0006.84,0004.02,0003.69
2021-08-23 23:52:00,,0824.2,5.00,0.00,28.8,26.0,00.0,37.9,30.4,21.5,0000.0,0006.42,0003.96,0003.67
2021-08-23 23:53:00,,0824.2,5.01,0.00,28.8,26.5,00.0,37.9,30.5,21.8,0000.0,0006.26,0003.94,0003.64
2021-08-23 23:54:00,,0824.2,4.98,0.00,28.8,26.9,00.0,37.9,30.6,21.8,0000.0,0006.40,0003.94,0003.63
2021-08-23 23:55:00,,0824.2,5.00,0.00,28.9,27.3,00.0,37.9,30.7,22.8,0000.0,0006.15,0003.94,0003.63
2021-08-23 23:56:00,,0824.2,4.99,0.00,28.9,27.7,00.0,37.9,30.9,22.4,0002.6,0006.13,0003.94,0003.64
2021-08-23 23:57:00,,0824.2,5.01,0.00,29.0,28.0,00.0,37.9,31.0,22.8,0001.7,0006.86,0003.95,0003.65
2021-08-23 23:58:00,,0824.2,5.01,0.00,29.1,27.7,00.0,38.0,30.9,22.5,0000.2,0007.39,0003.96,0003.65
2021-08-23 23:59:00,,0824.3,5.00,0.00,28.9,26.0,00.0,37.9,30.3,21.9,0000.0,0007.41,0003.99,0003.67
